Location: Bushrod
(6.3500°N, 10.7833°W)
Time: 02:27:18
(UTC+00:00)

Cosmos 2151 Rocket - Pass Details

Date: 17 September 2019
Orbit: 618 x 642 km, 82.5° (Epoch: 16 October)

Event Time Altitude Azimuth Distance (km) Brightness Sun altitude
Rises 19:18:57 0° 192° (SSW) 2,916 7.1 -10.0°
Reaches altitude 10° 19:21:13 10° 196° (SSW) 2,004 6.3 -10.6°
Maximum altitude 19:25:34 55° 274° (W) 752 4.4 -11.7°
Drops below altitude 10° 19:29:52 10° 352° (N) 1,985 6.3 -12.7°
Sets 19:32:08 0° 357° (N) 2,887 7.1 -13.3°
